| time (UTC) | temp C | wind direction | speed KPH | gust KPH | rain 1hr cm | rain 24hr cm | rain mn cm | humidity % | barometer mb |
| 20260508185359 | 17 | 240 | 4.8 | 6.4 | 0.00 | 0.00 | 0.00 | 51 | 989.0 |
| 20260508184856 | 17 | 243 | 6.4 | 11.3 | 0.00 | 0.00 | 0.00 | 51 | 989.0 |
| 20260508184353 | 17 | 249 | 4.8 | 6.4 | 0.00 | 0.00 | 0.00 | 51 | 989.0 |
| 20260508183849 | 17 | 248 | 8.0 | 9.7 | 0.00 | 0.00 | 0.00 | 52 | 989.1 |
| 20260508183346 | 17 | 252 | 6.4 | 6.4 | 0.00 | 0.00 | 0.00 | 55 | 989.1 |
| 20260508182842 | 16 | 238 | 3.2 | 4.8 | 0.00 | 0.00 | 0.00 | 59 | 989.2 |
| 20260508182339 | 15 | 271 | 1.6 | 1.6 | 0.00 | 0.00 | 0.00 | 64 | 989.2 |
| 20260508181834 | 16 | 250 | 3.2 | 4.8 | 0.00 | 0.00 | 0.00 | 58 | 989.3 |
| 20260508181331 | 16 | 224 | 8.0 | 9.7 | 0.00 | 0.00 | 0.00 | 58 | 989.2 |
| 20260508180828 | 16 | 290 | 3.2 | 3.2 | 0.00 | 0.00 | 0.00 | 61 | 989.1 |
| 20260508180325 | 16 | 238 | 4.8 | 4.8 | 0.00 | 0.00 | 0.00 | 56 | 989.4 |
| 20260508175821 | 16 | 273 | 4.8 | 6.4 | 0.00 | 0.00 | 0.00 | 58 | 989.5 |
| 20260508175318 | 16 | 219 | 4.8 | 6.4 | 0.00 | 0.00 | 0.00 | 56 | 989.5 |
| 20260508174816 | 16 | 225 | 3.2 | 4.8 | 0.00 | 0.00 | 0.00 | 57 | 989.4 |
| 20260508174313 | 16 | 243 | 6.4 | 9.7 | 0.00 | 0.00 | 0.00 | 58 | 989.5 |
| 20260508173809 | 16 | 251 | 3.2 | 3.2 | 0.00 | 0.00 | 0.00 | 57 | 989.5 |
| 20260508173307 | 16 | 246 | 3.2 | 4.8 | 0.00 | 0.00 | 0.00 | 60 | 989.5 |
| 20260508172802 | 16 | 251 | 3.2 | 3.2 | 0.00 | 0.00 | 0.00 | 59 | 989.7 |
| 20260508172300 | 16 | 336 | 1.6 | 1.6 | 0.00 | 0.00 | 0.00 | 59 | 989.7 |
| 20260508171755 | 17 | 235 | 3.2 | 4.8 | 0.00 | 0.00 | 0.00 | 57 | 989.9 |
| 20260508171252 | 17 | 230 | 3.2 | 4.8 | 0.00 | 0.00 | 0.00 | 56 | 989.9 |
| 20260508170749 | 17 | 33 | 3.2 | 3.2 | 0.00 | 0.00 | 0.00 | 58 | 990.0 |
| 20260508170247 | 17 | 256 | 3.2 | 4.8 | 0.00 | 0.00 | 0.00 | 57 | 990.0 |
| 20260508165744 | 16 | 231 | 1.6 | 3.2 | 0.00 | 0.00 | 0.00 | 64 | 990.1 |
| 20260508165241 | 16 | 216 | 3.2 | 3.2 | 0.00 | 0.00 | 0.00 | 62 | 990.2 |
| 20260508164737 | 16 | 255 | 4.8 | 4.8 | 0.00 | 0.00 | 0.00 | 60 | 990.6 |
| 20260508164234 | 16 | 253 | 3.2 | 3.2 | 0.00 | 0.00 | 0.00 | 62 | 990.5 |
| 20260508163732 | 16 | 234 | 4.8 | 6.4 | 0.00 | 0.00 | 0.00 | 61 | 990.7 |
| 20260508163229 | 16 | 293 | 1.6 | 1.6 | 0.00 | 0.00 | 0.00 | 64 | 990.7 |
| 20260508162725 | 15 | 238 | 3.2 | 3.2 | 0.00 | 0.00 | 0.00 | 65 | 991.1 |
| 20260508162222 | 15 | 239 | 4.8 | 4.8 | 0.00 | 0.00 | 0.00 | 65 | 990.7 |
| 20260508161719 | 14 | 6 | 0.0 | 1.6 | 0.00 | 0.00 | 0.00 | 69 | 990.9 |
| 20260508161216 | 15 | 240 | 3.2 | 4.8 | 0.00 | 0.00 | 0.00 | 64 | 991.2 |
| 20260508160714 | 14 | 227 | 4.8 | 4.8 | 0.00 | 0.00 | 0.00 | 66 | 991.0 |
| 20260508160212 | 14 | 300 | 4.8 | 4.8 | 0.00 | 0.00 | 0.00 | 66 | 990.9 |
| 20260508155709 | 14 | 295 | 1.6 | 3.2 | 0.00 | 0.00 | 0.00 | 67 | 991.0 |
| 20260508155206 | 14 | 244 | 3.2 | 3.2 | 0.00 | 0.00 | 0.00 | 66 | 990.8 |
| 20260508154703 | 14 | 291 | 1.6 | 3.2 | 0.00 | 0.00 | 0.00 | 67 | 991.0 |
| 20260508154159 | 15 | 264 | 3.2 | 3.2 | 0.00 | 0.00 | 0.00 | 65 | 991.0 |
| 20260508153656 | 15 | 95 | 1.6 | 3.2 | 0.00 | 0.00 | 0.00 | 65 | 990.8 |
| 20260508153153 | 15 | 191 | 3.2 | 4.8 | 0.00 | 0.00 | 0.00 | 66 | 990.9 |
| 20260508152649 | 15 | 306 | 0.0 | 3.2 | 0.00 | 0.00 | 0.00 | 66 | 991.0 |
| 20260508152145 | 13 | 355 | 0.0 | 0.0 | 0.00 | 0.00 | 0.00 | 71 | 991.0 |
| 20260508151642 | 13 | 247 | 3.2 | 4.8 | 0.00 | 0.00 | 0.00 | 67 | 990.9 |
| 20260508151139 | 13 | 255 | 3.2 | 3.2 | 0.00 | 0.00 | 0.00 | 67 | 990.9 |
| 20260508150636 | 13 | 275 | 1.6 | 3.2 | 0.00 | 0.00 | 0.00 | 66 | 990.9 |
| 20260508150133 | 13 | 250 | 3.2 | 3.2 | 0.00 | 0.00 | 0.00 | 65 | 991.0 |
| 20260508145628 | 13 | 280 | 3.2 | 3.2 | 0.00 | 0.00 | 0.00 | 67 | 991.1 |
| 20260508145125 | 13 | 256 | 3.2 | 3.2 | 0.00 | 0.00 | 0.00 | 69 | 991.1 |
| 20260508144623 | 13 | 261 | 3.2 | 4.8 | 0.00 | 0.00 | 0.00 | 67 | 991.2 |
| 20260508144120 | 13 | 269 | 1.6 | 1.6 | 0.00 | 0.00 | 0.00 | 66 | 990.9 |
| 20260508143617 | 14 | 339 | 3.2 | 3.2 | 0.00 | 0.00 | 0.00 | 65 | 990.9 |
| 20260508143114 | 14 | 297 | 0.0 | 1.6 | 0.00 | 0.00 | 0.00 | 66 | 991.1 |
| 20260508142610 | 15 | 229 | 0.0 | 1.6 | 0.00 | 0.00 | 0.00 | 65 | 991.1 |
| 20260508142107 | 14 | 225 | 3.2 | 4.8 | 0.00 | 0.00 | 0.00 | 64 | 991.1 |
| 20260508141604 | 14 | 331 | 3.2 | 3.2 | 0.00 | 0.00 | 0.00 | 65 | 991.0 |
| 20260508141102 | 13 | 256 | 6.4 | 9.7 | 0.00 | 0.00 | 0.00 | 67 | 991.3 |
| 20260508140559 | 13 | 246 | 1.6 | 1.6 | 0.00 | 0.00 | 0.00 | 69 | 991.1 |
| 20260508140055 | 13 | 346 | 3.2 | 4.8 | 0.00 | 0.00 | 0.00 | 69 | 991.0 |
| 20260508135550 | 13 | 247 | 3.2 | 3.2 | 0.00 | 0.00 | 0.00 | 67 | 991.0 |
| 20260508135047 | 13 | 290 | 3.2 | 4.8 | 0.00 | 0.00 | 0.00 | 67 | 991.3 |
| 20260508134544 | 13 | 267 | 1.6 | 1.6 | 0.00 | 0.00 | 0.00 | 69 | 991.4 |
| 20260508134041 | 12 | 261 | 3.2 | 3.2 | 0.00 | 0.00 | 0.00 | 70 | 991.3 |
| 20260508133537 | 12 | 268 | 1.6 | 1.6 | 0.00 | 0.00 | 0.00 | 70 | 991.3 |
| 20260508133035 | 13 | 237 | 3.2 | 4.8 | 0.00 | 0.00 | 0.00 | 68 | 991.3 |
| 20260508132533 | 13 | 239 | 6.4 | 9.7 | 0.00 | 0.00 | 0.00 | 66 | 991.5 |
| 20260508132029 | 13 | 215 | 1.6 | 1.6 | 0.00 | 0.00 | 0.00 | 67 | 991.2 |
| 20260508131524 | 12 | 280 | 0.0 | 0.0 | 0.00 | 0.00 | 0.00 | 71 | 991.2 |
| 20260508131021 | 12 | 291 | 1.6 | 3.2 | 0.00 | 0.00 | 0.00 | 71 | 991.3 |
| 20260508130519 | 12 | 222 | 6.4 | 6.4 | 0.00 | 0.00 | 0.00 | 69 | 991.4 |
| 20260508130015 | 12 | 295 | 4.8 | 4.8 | 0.00 | 0.00 | 0.00 | 69 | 991.3 |
| 20260508125511 | 12 | 247 | 1.6 | 1.6 | 0.00 | 0.00 | 0.00 | 70 | 991.5 |
| 20260508125008 | 12 | 314 | 3.2 | 3.2 | 0.00 | 0.00 | 0.00 | 71 | 991.2 |
| 20260508124506 | 12 | 244 | 4.8 | 4.8 | 0.00 | 0.00 | 0.00 | 70 | 991.5 |
| 20260508124003 | 11 | 261 | 3.2 | 4.8 | 0.00 | 0.00 | 0.00 | 71 | 991.3 |
| 20260508123502 | 11 | 262 | 1.6 | 3.2 | 0.00 | 0.00 | 0.00 | 72 | 991.2 |
| 20260508122958 | 11 | 216 | 4.8 | 9.7 | 0.00 | 0.00 | 0.00 | 72 | 991.5 |
| 20260508122455 | 11 | 352 | 0.0 | 1.6 | 0.00 | 0.00 | 0.00 | 75 | 991.2 |
| 20260508121952 | 10 | 231 | 4.8 | 4.8 | 0.00 | 0.00 | 0.00 | 76 | 991.2 |
| 20260508121450 | 10 | 331 | 4.8 | 4.8 | 0.00 | 0.00 | 0.00 | 75 | 991.2 |
| 20260508120948 | 10 | 245 | 3.2 | 3.2 | 0.00 | 0.00 | 0.00 | 77 | 991.0 |
| 20260508120445 | 10 | 254 | 1.6 | 3.2 | 0.00 | 0.00 | 0.00 | 78 | 990.9 |
| 20260508115943 | 9 | 259 | 3.2 | 3.2 | 0.00 | 0.00 | 0.00 | 78 | 990.8 |
| 20260508115441 | 9 | 241 | 3.2 | 4.8 | 0.00 | 0.00 | 0.00 | 80 | 990.8 |
| 20260508114937 | 8 | 288 | 1.6 | 1.6 | 0.00 | 0.00 | 0.00 | 82 | 990.7 |
| 20260508114434 | 8 | 262 | 1.6 | 1.6 | 0.00 | 0.00 | 0.00 | 81 | 990.4 |
| 20260508113930 | 8 | 264 | 1.6 | 1.6 | 0.00 | 0.00 | 0.00 | 82 | 990.3 |
| 20260508113428 | 8 | 250 | 1.6 | 3.2 | 0.00 | 0.00 | 0.00 | 82 | 990.4 |
| 20260508112925 | 8 | 235 | 1.6 | 1.6 | 0.00 | 0.00 | 0.00 | 82 | 990.5 |
| 20260508112422 | 8 | 245 | 1.6 | 3.2 | 0.00 | 0.00 | 0.00 | 82 | 990.5 |
| 20260508111918 | 8 | 231 | 3.2 | 3.2 | 0.00 | 0.00 | 0.00 | 82 | 990.6 |
| 20260508111416 | 8 | 246 | 4.8 | 4.8 | 0.00 | 0.00 | 0.00 | 82 | 990.3 |
| 20260508110913 | 8 | 280 | 1.6 | 1.6 | 0.00 | 0.00 | 0.00 | 82 | 990.1 |
| 20260508110411 | 8 | 243 | 1.6 | 1.6 | 0.00 | 0.00 | 0.00 | 81 | 990.1 |
| 20260508105910 | 8 | 267 | 1.6 | 1.6 | 0.00 | 0.00 | 0.00 | 81 | 990.2 |
| 20260508105407 | 8 | 255 | 1.6 | 1.6 | 0.00 | 0.00 | 0.00 | 81 | 990.0 |
| 20260508104904 | 8 | 241 | 3.2 | 3.2 | 0.00 | 0.00 | 0.00 | 81 | 990.0 |
| 20260508104401 | 8 | 249 | 3.2 | 3.2 | 0.00 | 0.00 | 0.00 | 81 | 990.3 |
| 20260508103858 | 8 | 242 | 1.6 | 1.6 | 0.00 | 0.00 | 0.00 | 81 | 989.9 |
| 20260508103354 | 8 | 260 | 1.6 | 3.2 | 0.00 | 0.00 | 0.00 | 81 | 989.9 |
| 20260508102852 | 8 | 247 | 1.6 | 1.6 | 0.00 | 0.00 | 0.00 | 80 | 990.0 |
| 20260508102350 | 8 | 250 | 1.6 | 1.6 | 0.00 | 0.00 | 0.00 | 81 | 990.2 |
| 20260508101847 | 8 | 279 | 0.0 | 1.6 | 0.00 | 0.00 | 0.00 | 81 | 990.2 |
| 20260508101344 | 8 | 256 | 1.6 | 1.6 | 0.00 | 0.00 | 0.00 | 81 | 990.2 |
| 20260508100842 | 8 | 244 | 1.6 | 1.6 | 0.00 | 0.00 | 0.00 | 81 | 990.1 |
| 20260508100341 | 8 | 277 | 1.6 | 1.6 | 0.00 | 0.00 | 0.00 | 81 | 990.2 |
| 20260508095836 | 8 | 253 | 1.6 | 1.6 | 0.00 | 0.00 | 0.00 | 81 | 990.1 |
| 20260508095334 | 8 | 260 | 0.0 | 1.6 | 0.00 | 0.00 | 0.00 | 82 | 990.1 |
| 20260508094830 | 8 | 250 | 0.0 | 0.0 | 0.00 | 0.00 | 0.00 | 82 | 990.1 |
| 20260508094327 | 8 | 271 | 3.2 | 4.8 | 0.00 | 0.00 | 0.00 | 82 | 990.0 |
| 20260508093825 | 8 | 272 | 3.2 | 3.2 | 0.00 | 0.00 | 0.00 | 83 | 989.9 |
| 20260508093322 | 8 | 245 | 1.6 | 3.2 | 0.00 | 0.00 | 0.00 | 83 | 990.0 |
| 20260508092819 | 7 | 255 | 0.0 | 1.6 | 0.00 | 0.00 | 0.00 | 83 | 990.1 |
| 20260508092317 | 7 | 244 | 1.6 | 1.6 | 0.00 | 0.00 | 0.00 | 84 | 990.0 |
| 20260508091815 | 7 | 267 | 1.6 | 1.6 | 0.00 | 0.00 | 0.00 | 84 | 990.3 |
| 20260508091311 | 7 | 246 | 1.6 | 1.6 | 0.00 | 0.00 | 0.00 | 85 | 990.1 |
| 20260508090809 | 7 | 241 | 1.6 | 1.6 | 0.00 | 0.00 | 0.00 | 85 | 990.0 |
| 20260508090308 | 7 | 275 | 1.6 | 1.6 | 0.00 | 0.00 | 0.00 | 85 | 990.3 |
| 20260508085803 | 7 | 297 | 0.0 | 0.0 | 0.00 | 0.00 | 0.00 | 85 | 990.2 |
| 20260508085300 | 7 | 260 | 1.6 | 1.6 | 0.00 | 0.00 | 0.00 | 86 | 990.3 |
| 20260508084755 | 7 | 240 | 1.6 | 1.6 | 0.00 | 0.00 | 0.00 | 86 | 990.1 |
| 20260508084253 | 7 | 246 | 1.6 | 1.6 | 0.00 | 0.00 | 0.00 | 86 | 990.1 |
| 20260508083751 | 7 | 244 | 1.6 | 1.6 | 0.00 | 0.00 | 0.00 | 86 | 990.1 |
| 20260508083248 | 7 | 254 | 0.0 | 1.6 | 0.00 | 0.00 | 0.00 | 85 | 990.2 |
| 20260508082748 | 7 | 287 | 0.0 | 1.6 | 0.00 | 0.00 | 0.00 | 85 | 990.2 |
| 20260508082246 | 8 | 244 | 3.2 | 3.2 | 0.00 | 0.00 | 0.00 | 85 | 990.1 |
| 20260508081743 | 8 | 234 | 1.6 | 1.6 | 0.00 | 0.00 | 0.00 | 85 | 990.3 |
| 20260508081240 | 8 | 255 | 1.6 | 1.6 | 0.00 | 0.00 | 0.00 | 85 | 990.3 |
| 20260508080737 | 8 | 260 | 1.6 | 3.2 | 0.00 | 0.00 | 0.00 | 84 | 990.2 |
| 20260508080235 | 8 | 241 | 1.6 | 1.6 | 0.00 | 0.00 | 0.00 | 84 | 990.3 |
| 20260508075731 | 8 | 237 | 3.2 | 3.2 | 0.00 | 0.00 | 0.00 | 84 | 990.3 |
| 20260508075228 | 8 | 251 | 0.0 | 0.0 | 0.00 | 0.00 | 0.00 | 84 | 990.3 |
| 20260508074726 | 8 | 237 | 3.2 | 3.2 | 0.00 | 0.00 | 0.00 | 84 | 990.3 |
| 20260508074223 | 8 | 253 | 0.0 | 1.6 | 0.00 | 0.00 | 0.00 | 84 | 990.6 |
| 20260508073719 | 8 | 229 | 1.6 | 1.6 | 0.00 | 0.00 | 0.00 | 83 | 990.4 |
| 20260508073218 | 8 | 256 | 3.2 | 3.2 | 0.00 | 0.00 | 0.00 | 83 | 990.5 |
| 20260508072713 | 8 | 237 | 1.6 | 1.6 | 0.00 | 0.00 | 0.00 | 82 | 990.3 |
| 20260508072210 | 8 | 247 | 1.6 | 1.6 | 0.00 | 0.00 | 0.00 | 82 | 990.5 |
| 20260508071708 | 8 | 242 | 3.2 | 3.2 | 0.00 | 0.00 | 0.00 | 82 | 990.5 |
| 20260508071206 | 7 | 226 | 3.2 | 3.2 | 0.00 | 0.00 | 0.00 | 82 | 990.5 |
| 20260508070703 | 7 | 249 | 1.6 | 1.6 | 0.00 | 0.00 | 0.00 | 82 | 990.7 |
| 20260508070202 | 7 | 252 | 0.0 | 1.6 | 0.00 | 0.00 | 0.00 | 82 | 990.4 |
| 20260508065658 | 7 | 250 | 3.2 | 3.2 | 0.00 | 0.00 | 0.00 | 82 | 990.7 |
| 20260508065156 | 7 | 241 | 1.6 | 1.6 | 0.00 | 0.00 | 0.00 | 81 | 990.6 |
| 20260508064654 | 8 | 239 | 1.6 | 1.6 | 0.00 | 0.00 | 0.00 | 81 | 990.8 |
| 20260508064152 | 8 | 243 | 1.6 | 3.2 | 0.00 | 0.00 | 0.00 | 81 | 990.8 |
| 20260508063649 | 8 | 257 | 1.6 | 1.6 | 0.00 | 0.00 | 0.00 | 80 | 990.9 |
| 20260508063147 | 8 | 14 | 1.6 | 3.2 | 0.00 | 0.00 | 0.00 | 80 | 990.7 |
| 20260508062644 | 8 | 244 | 3.2 | 3.2 | 0.00 | 0.00 | 0.00 | 80 | 990.8 |
| 20260508062141 | 8 | 268 | 1.6 | 3.2 | 0.00 | 0.00 | 0.00 | 79 | 990.9 |
| 20260508061638 | 8 | 243 | 1.6 | 1.6 | 0.00 | 0.00 | 0.00 | 79 | 990.7 |
| 20260508061135 | 8 | 260 | 3.2 | 3.2 | 0.00 | 0.00 | 0.00 | 78 | 990.7 |
| 20260508060632 | 8 | 240 | 3.2 | 4.8 | 0.00 | 0.00 | 0.00 | 77 | 990.8 |
| 20260508060129 | 8 | 242 | 1.6 | 3.2 | 0.00 | 0.00 | 0.00 | 76 | 990.8 |
| 20260508055625 | 8 | 233 | 3.2 | 4.8 | 0.00 | 0.00 | 0.00 | 76 | 990.9 |
| 20260508055122 | 8 | 240 | 3.2 | 4.8 | 0.00 | 0.00 | 0.00 | 75 | 990.8 |
| 20260508054618 | 8 | 254 | 3.2 | 3.2 | 0.00 | 0.00 | 0.00 | 76 | 991.1 |
| 20260508054116 | 8 | 273 | 1.6 | 1.6 | 0.00 | 0.00 | 0.00 | 76 | 991.0 |
| 20260508053612 | 8 | 257 | 1.6 | 1.6 | 0.00 | 0.00 | 0.00 | 75 | 990.9 |
| 20260508053111 | 9 | 279 | 3.2 | 3.2 | 0.00 | 0.00 | 0.00 | 74 | 991.0 |
| 20260508052607 | 9 | 243 | 3.2 | 3.2 | 0.00 | 0.00 | 0.00 | 73 | 990.9 |
| 20260508052105 | 9 | 239 | 1.6 | 3.2 | 0.00 | 0.00 | 0.00 | 72 | 991.1 |
| 20260508051601 | 9 | 259 | 3.2 | 3.2 | 0.00 | 0.00 | 0.00 | 71 | 991.2 |
| 20260508051056 | 9 | 226 | 3.2 | 3.2 | 0.00 | 0.00 | 0.00 | 70 | 990.9 |
| 20260508050552 | 9 | 222 | 3.2 | 4.8 | 0.00 | 0.00 | 0.00 | 70 | 990.9 |
| 20260508050050 | 8 | 251 | 1.6 | 3.2 | 0.00 | 0.00 | 0.00 | 72 | 990.8 |
| 20260508045546 | 8 | 236 | 1.6 | 1.6 | 0.00 | 0.00 | 0.00 | 73 | 990.8 |
| 20260508045044 | 8 | 256 | 1.6 | 3.2 | 0.00 | 0.00 | 0.00 | 74 | 991.1 |
| 20260508044541 | 8 | 242 | 1.6 | 1.6 | 0.00 | 0.00 | 0.00 | 73 | 990.9 |
| 20260508044037 | 8 | 275 | 0.0 | 1.6 | 0.00 | 0.00 | 0.00 | 73 | 990.9 |
| 20260508043533 | 8 | 238 | 1.6 | 1.6 | 0.00 | 0.00 | 0.00 | 72 | 991.2 |
| 20260508043031 | 8 | 291 | 0.0 | 0.0 | 0.00 | 0.00 | 0.00 | 72 | 991.0 |
| 20260508042527 | 9 | 248 | 0.0 | 1.6 | 0.00 | 0.00 | 0.00 | 72 | 991.1 |
| 20260508042025 | 9 | 265 | 0.0 | 0.0 | 0.00 | 0.00 | 0.00 | 72 | 991.1 |
| 20260508041521 | 9 | 306 | 0.0 | 0.0 | 0.00 | 0.00 | 0.00 | 71 | 991.1 |
| 20260508041018 | 9 | 292 | 0.0 | 0.0 | 0.00 | 0.00 | 0.00 | 71 | 991.1 |
| 20260508040515 | 9 | 260 | 0.0 | 0.0 | 0.00 | 0.00 | 0.00 | 71 | 991.1 |
| 20260508040013 | 9 | 249 | 0.0 | 1.6 | 0.00 | 0.00 | 0.00 | 70 | 991.0 |
| 20260508035509 | 9 | 246 | 1.6 | 1.6 | 0.00 | 0.00 | 0.00 | 69 | 991.1 |
| 20260508035006 | 9 | 351 | 0.0 | 0.0 | 0.00 | 0.00 | 0.00 | 69 | 991.1 |
| 20260508034503 | 10 | 261 | 0.0 | 0.0 | 0.00 | 0.00 | 0.00 | 68 | 991.1 |
| 20260508034000 | 10 | 239 | 0.0 | 1.6 | 0.00 | 0.00 | 0.00 | 67 | 991.1 |
| 20260508033458 | 10 | 242 | 1.6 | 1.6 | 0.00 | 0.00 | 0.00 | 66 | 991.2 |
| 20260508032955 | 10 | 241 | 0.0 | 1.6 | 0.00 | 0.00 | 0.00 | 65 | 991.2 |
| 20260508032452 | 10 | 235 | 3.2 | 3.2 | 0.00 | 0.00 | 0.00 | 64 | 991.2 |
| 20260508031949 | 10 | 240 | 1.6 | 3.2 | 0.00 | 0.00 | 0.00 | 64 | 991.3 |
| 20260508031447 | 10 | 263 | 1.6 | 1.6 | 0.00 | 0.00 | 0.00 | 63 | 991.4 |
| 20260508030942 | 10 | 265 | 1.6 | 1.6 | 0.00 | 0.00 | 0.00 | 63 | 991.6 |
| 20260508030439 | 10 | 240 | 4.8 | 4.8 | 0.00 | 0.00 | 0.00 | 62 | 991.4 |
| 20260508025937 | 10 | 259 | 3.2 | 3.2 | 0.00 | 0.00 | 0.00 | 63 | 991.3 |
| 20260508025433 | 10 | 269 | 1.6 | 1.6 | 0.00 | 0.00 | 0.00 | 63 | 991.3 |
| 20260508024930 | 10 | 237 | 3.2 | 3.2 | 0.00 | 0.00 | 0.00 | 62 | 991.4 |
| 20260508024426 | 10 | 258 | 1.6 | 1.6 | 0.00 | 0.00 | 0.00 | 62 | 991.5 |
| 20260508023923 | 10 | 244 | 3.2 | 4.8 | 0.00 | 0.00 | 0.00 | 62 | 991.6 |
| 20260508023420 | 10 | 229 | 3.2 | 3.2 | 0.00 | 0.00 | 0.00 | 61 | 991.5 |
| 20260508022917 | 10 | 247 | 3.2 | 3.2 | 0.00 | 0.00 | 0.00 | 61 | 991.6 |
| 20260508022413 | 10 | 251 | 3.2 | 4.8 | 0.00 | 0.00 | 0.00 | 60 | 991.6 |
| 20260508021910 | 10 | 265 | 3.2 | 4.8 | 0.00 | 0.00 | 0.00 | 59 | 991.5 |
| 20260508021406 | 10 | 241 | 3.2 | 3.2 | 0.00 | 0.00 | 0.00 | 59 | 991.6 |
| 20260508020901 | 10 | 244 | 4.8 | 6.4 | 0.00 | 0.00 | 0.00 | 59 | 991.6 |
| 20260508020400 | 11 | 249 | 6.4 | 6.4 | 0.00 | 0.00 | 0.00 | 58 | 991.6 |
| 20260508015857 | 11 | 227 | 4.8 | 4.8 | 0.00 | 0.00 | 0.00 | 58 | 991.4 |
| 20260508015354 | 11 | 244 | 4.8 | 4.8 | 0.00 | 0.00 | 0.00 | 56 | 991.3 |
| 20260508014850 | 11 | 254 | 4.8 | 6.4 | 0.00 | 0.00 | 0.00 | 56 | 991.4 |
| 20260508014348 | 11 | 237 | 6.4 | 6.4 | 0.00 | 0.00 | 0.00 | 55 | 991.5 |
| 20260508013843 | 11 | 261 | 4.8 | 4.8 | 0.00 | 0.00 | 0.00 | 55 | 991.3 |
| 20260508013340 | 11 | 259 | 4.8 | 6.4 | 0.00 | 0.00 | 0.00 | 54 | 991.4 |
| 20260508012837 | 11 | 243 | 6.4 | 6.4 | 0.00 | 0.00 | 0.00 | 53 | 991.2 |
| 20260508012334 | 11 | 299 | 3.2 | 6.4 | 0.00 | 0.00 | 0.00 | 53 | 991.0 |
| 20260508011832 | 11 | 250 | 4.8 | 9.7 | 0.00 | 0.00 | 0.00 | 52 | 991.1 |
| 20260508011330 | 11 | 241 | 6.4 | 9.7 | 0.00 | 0.00 | 0.00 | 51 | 991.1 |
| 20260508010827 | 11 | 280 | 4.8 | 6.4 | 0.00 | 0.00 | 0.00 | 51 | 991.0 |
| 20260508010324 | 12 | 246 | 3.2 | 4.8 | 0.00 | 0.00 | 0.00 | 49 | 991.0 |
| 20260508005821 | 12 | 251 | 9.7 | 12.9 | 0.00 | 0.00 | 0.00 | 46 | 990.8 |
| 20260508005318 | 12 | 254 | 4.8 | 4.8 | 0.00 | 0.00 | 0.00 | 45 | 990.8 |
| 20260508004815 | 12 | 359 | 8.0 | 9.7 | 0.00 | 0.00 | 0.00 | 44 | 990.8 |
| 20260508004310 | 12 | 334 | 4.8 | 6.4 | 0.00 | 0.00 | 0.00 | 42 | 990.6 |
| 20260508003807 | 12 | 237 | 3.2 | 4.8 | 0.00 | 0.00 | 0.00 | 42 | 990.8 |
| 20260508003305 | 12 | 263 | 1.6 | 1.6 | 0.00 | 0.00 | 0.00 | 42 | 990.6 |
| 20260508002801 | 12 | 253 | 1.6 | 1.6 | 0.00 | 0.00 | 0.00 | 43 | 990.6 |
| 20260508002258 | 12 | 243 | 6.4 | 6.4 | 0.00 | 0.00 | 0.00 | 43 | 990.6 |
| 20260508001754 | 12 | 255 | 1.6 | 1.6 | 0.00 | 0.00 | 0.00 | 44 | 990.5 |
| 20260508001249 | 12 | 253 | 1.6 | 1.6 | 0.00 | 0.00 | 0.00 | 44 | 990.3 |
| 20260508000746 | 12 | 238 | 1.6 | 1.6 | 0.00 | 0.00 | 0.00 | 43 | 990.6 |
| 20260508000243 | 12 | 230 | 1.6 | 1.6 | 0.00 | 0.00 | 0.00 | 43 | 990.5 |
| 20260507235739 | 13 | 341 | 0.0 | 0.0 | 0.00 | 0.00 | 0.00 | 44 | 990.4 |
| 20260507235237 | 13 | 280 | 0.0 | 0.0 | 0.00 | 0.00 | 0.00 | 41 | 990.3 |
| 20260507234734 | 13 | 333 | 0.0 | 0.0 | 0.00 | 0.00 | 0.00 | 42 | 990.2 |
| 20260507234230 | 13 | 285 | 1.6 | 1.6 | 0.00 | 0.00 | 0.00 | 41 | 990.5 |
| 20260507233727 | 13 | 211 | 0.0 | 0.0 | 0.00 | 0.00 | 0.00 | 38 | 990.4 |
| 20260507233225 | 13 | 253 | 0.0 | 1.6 | 0.00 | 0.00 | 0.00 | 38 | 990.4 |
| 20260507232722 | 14 | 176 | 0.0 | 1.6 | 0.00 | 0.00 | 0.00 | 37 | 990.4 |
| 20260507232219 | 14 | 235 | 3.2 | 3.2 | 0.00 | 0.00 | 0.00 | 36 | 990.4 |
| 20260507231715 | 14 | 267 | 0.0 | 0.0 | 0.00 | 0.00 | 0.00 | 39 | 990.4 |
| 20260507231213 | 14 | 239 | 1.6 | 1.6 | 0.00 | 0.00 | 0.00 | 38 | 990.4 |
| 20260507230709 | 14 | 347 | 0.0 | 0.0 | 0.00 | 0.00 | 0.00 | 36 | 990.5 |
| 20260507230207 | 15 | 293 | 0.0 | 0.0 | 0.00 | 0.00 | 0.00 | 37 | 990.6 |
| 20260507225706 | 15 | 319 | 0.0 | 1.6 | 0.00 | 0.00 | 0.00 | 36 | 990.5 |
| 20260507225203 | 16 | 338 | 0.0 | 0.0 | 0.00 | 0.00 | 0.00 | 36 | 990.5 |
| 20260507224658 | 16 | 282 | 0.0 | 1.6 | 0.00 | 0.00 | 0.00 | 34 | 990.6 |
| 20260507224155 | 16 | 335 | 0.0 | 1.6 | 0.00 | 0.00 | 0.00 | 36 | 990.5 |
| 20260507223651 | 16 | 251 | 3.2 | 4.8 | 0.00 | 0.00 | 0.00 | 31 | 990.6 |
| 20260507223148 | 16 | 306 | 3.2 | 3.2 | 0.00 | 0.00 | 0.00 | 34 | 990.8 |
| 20260507222645 | 16 | 292 | 0.0 | 0.0 | 0.00 | 0.00 | 0.00 | 35 | 990.7 |
| 20260507222141 | 16 | 10 | 0.0 | 1.6 | 0.00 | 0.00 | 0.00 | 31 | 990.9 |
| 20260507221638 | 16 | 248 | 1.6 | 3.2 | 0.00 | 0.00 | 0.00 | 33 | 990.8 |
| 20260507221134 | 16 | 335 | 0.0 | 1.6 | 0.00 | 0.00 | 0.00 | 33 | 990.7 |
| 20260507220632 | 16 | 333 | 3.2 | 4.8 | 0.00 | 0.00 | 0.00 | 33 | 990.6 |
| 20260507220130 | 16 | 340 | 0.0 | 0.0 | 0.00 | 0.00 | 0.00 | 32 | 990.6 |
| 20260507215625 | 16 | 320 | 1.6 | 1.6 | 0.00 | 0.00 | 0.00 | 32 | 990.6 |
| 20260507215123 | 16 | 241 | 1.6 | 1.6 | 0.00 | 0.00 | 0.00 | 33 | 990.6 |
| 20260507214620 | 16 | 255 | 3.2 | 4.8 | 0.00 | 0.00 | 0.00 | 36 | 990.7 |
| 20260507214116 | 15 | 287 | 1.6 | 1.6 | 0.00 | 0.00 | 0.00 | 34 | 990.5 |
| 20260507213612 | 16 | 240 | 1.6 | 1.6 | 0.00 | 0.00 | 0.00 | 34 | 990.4 |
| 20260507213110 | 16 | 275 | 3.2 | 3.2 | 0.00 | 0.00 | 0.00 | 35 | 990.5 |
| 20260507212606 | 15 | 82 | 1.6 | 3.2 | 0.00 | 0.00 | 0.00 | 36 | 990.8 |
| 20260507212102 | 15 | 323 | 1.6 | 1.6 | 0.00 | 0.00 | 0.00 | 38 | 990.8 |
| 20260507211559 | 16 | 299 | 1.6 | 1.6 | 0.00 | 0.00 | 0.00 | 36 | 990.7 |
| 20260507211055 | 15 | 282 | 3.2 | 3.2 | 0.00 | 0.00 | 0.00 | 35 | 990.6 |
| 20260507210553 | 15 | 213 | 3.2 | 4.8 | 0.00 | 0.00 | 0.00 | 35 | 990.7 |
| 20260507210049 | 15 | 241 | 1.6 | 1.6 | 0.00 | 0.00 | 0.00 | 34 | 990.6 |
| 20260507205546 | 16 | 242 | 4.8 | 4.8 | 0.00 | 0.00 | 0.00 | 32 | 990.7 |
| 20260507205042 | 15 | 108 | 3.2 | 4.8 | 0.00 | 0.00 | 0.00 | 39 | 990.8 |
| 20260507204538 | 16 | 232 | 3.2 | 3.2 | 0.00 | 0.00 | 0.00 | 34 | 990.6 |
| 20260507204036 | 16 | 302 | 1.6 | 3.2 | 0.00 | 0.00 | 0.00 | 37 | 990.5 |
| 20260507203534 | 15 | 261 | 3.2 | 3.2 | 0.00 | 0.00 | 0.00 | 35 | 990.7 |
| 20260507203031 | 15 | 321 | 0.0 | 1.6 | 0.00 | 0.00 | 0.00 | 34 | 990.6 |
| 20260507202527 | 16 | 325 | 3.2 | 4.8 | 0.00 | 0.00 | 0.00 | 35 | 990.8 |
| 20260507202023 | 15 | 300 | 1.6 | 1.6 | 0.00 | 0.00 | 0.00 | 34 | 990.9 |
| 20260507201519 | 15 | 334 | 3.2 | 3.2 | 0.00 | 0.00 | 0.00 | 36 | 990.7 |
| 20260507201015 | 15 | 251 | 1.6 | 3.2 | 0.00 | 0.00 | 0.00 | 37 | 990.8 |
| 20260507200511 | 15 | 317 | 3.2 | 3.2 | 0.00 | 0.00 | 0.00 | 36 | 990.9 |
| 20260507200007 | 15 | 332 | 3.2 | 3.2 | 0.00 | 0.00 | 0.00 | 35 | 990.9 |
| 20260507195505 | 15 | 278 | 1.6 | 3.2 | 0.00 | 0.00 | 0.00 | 40 | 990.9 |
| 20260507195002 | 15 | 342 | 3.2 | 4.8 | 0.00 | 0.00 | 0.00 | 35 | 990.8 |
| 20260507194458 | 15 | 309 | 3.2 | 3.2 | 0.00 | 0.00 | 0.00 | 36 | 990.9 |
| 20260507193954 | 16 | 240 | 3.2 | 3.2 | 0.00 | 0.00 | 0.00 | 33 | 990.8 |
| 20260507193452 | 17 | 318 | 4.8 | 4.8 | 0.00 | 0.00 | 0.00 | 31 | 990.7 |
| 20260507192948 | 16 | 257 | 1.6 | 3.2 | 0.00 | 0.00 | 0.00 | 34 | 990.9 |
| 20260507192444 | 17 | 253 | 3.2 | 3.2 | 0.00 | 0.00 | 0.00 | 32 | 991.0 |
| 20260507191941 | 16 | 247 | 3.2 | 3.2 | 0.00 | 0.00 | 0.00 | 38 | 990.9 |
| 20260507191437 | 16 | 239 | 8.0 | 9.7 | 0.00 | 0.00 | 0.00 | 34 | 990.7 |
| 20260507190934 | 15 | 270 | 3.2 | 4.8 | 0.00 | 0.00 | 0.00 | 37 | 991.2 |
| 20260507190432 | 16 | 235 | 3.2 | 4.8 | 0.00 | 0.00 | 0.00 | 35 | 991.1 |
| 20260507185931 | 16 | 258 | 1.6 | 1.6 | 0.00 | 0.00 | 0.00 | 35 | 991.0 |